WetterOnline ( https://www.wetteronline.de )

Wetter aktuell Offenburg

Aktuelles Wetter: Lahr (156m)

6-stündlich | Neueste Meldungen
Ortszeit Temperatur Wetter
Fr, 01.03. 1:00 4.0° C wolkig
Do, 29.02. 19:00 8.0° C wolkenlos
Do, 29.02. 13:00 10.5° C wolkenlos
Do, 29.02. 7:00 -0.2° C wolkig
Do, 29.02. 1:00 1.8° C wolkenlos
Mi, 28.02. 19:00 6.1° C wolkig
Mi, 28.02. 13:00 9.3° C fast wolkenlos
Mi, 28.02. 7:00 3.2° C fast wolkenlos
Ortszeit Temperatur Wetter
Fr, 01.03. 2:00 4.2° C bedeckt
Fr, 01.03. 1:50 4.2° C bedeckt
Fr, 01.03. 1:40 4.2° C bedeckt
Fr, 01.03. 1:30 3.9° C bedeckt
Fr, 01.03. 1:20 3.9° C bedeckt
Fr, 01.03. 1:10 4.0° C bedeckt
Fr, 01.03. 1:00 4.0° C wolkig
Fr, 01.03. 0:30 3.0° C wolkig
Fr, 01.03. 0:00 2.8° C leicht bewölkt
Do, 29.02. 23:30 3.4° C leicht bewölkt
Do, 29.02. 23:00 3.9° C wolkenlos
Do, 29.02. 22:30 4.1° C wolkenlos
Ortszeit Relative Feuchte Sichtweite
Fr, 01.03. 1:00 93% 11 km
Do, 29.02. 19:00 77% 19 km
Do, 29.02. 13:00 60% 29 km
Do, 29.02. 7:00 96% 7 km
Do, 29.02. 1:00 95% 9 km
Mi, 28.02. 19:00 72% 35 km
Mi, 28.02. 13:00 68% 20 km
Mi, 28.02. 7:00 92% 5.0 km
Ortszeit Relative Feuchte Sichtweite
Fr, 01.03. 2:00 90% 14 km
Fr, 01.03. 1:50 90% -
Fr, 01.03. 1:40 89% -
Fr, 01.03. 1:30 91% 11 km
Fr, 01.03. 1:20 91% -
Fr, 01.03. 1:10 93% -
Fr, 01.03. 1:00 93% 11 km
Fr, 01.03. 0:30 95% 8 km
Fr, 01.03. 0:00 91% 12 km
Do, 29.02. 23:30 91% 12 km
Do, 29.02. 23:00 91% 12 km
Do, 29.02. 22:30 92% 14 km
Ortszeit Niederschlagsmenge Niederschlagsart
Fr, 01.03. 1:00 0.0 l/m2 in 6 Std. -
Do, 29.02. 19:00 0.0 l/m2 in 12 Std. -
Do, 29.02. 13:00 0.0 l/m2 in 6 Std. -
Do, 29.02. 7:00 0.0 l/m2 in 12 Std. -
Do, 29.02. 1:00 0.0 l/m2 in 6 Std. -
Mi, 28.02. 19:00 0.0 l/m2 in 12 Std. -
Mi, 28.02. 13:00 0.0 l/m2 in 6 Std. -
Mi, 28.02. 7:00 0.0 l/m2 in 12 Std. -
Ortszeit Niederschlagsmenge Niederschlagsart
Fr, 01.03. 2:00 0.0 l/m2 in 1 Std. -
Fr, 01.03. 1:50 keine Meldung -
Fr, 01.03. 1:40 keine Meldung -
Fr, 01.03. 1:30 0.0 l/m2 in 30 Min -
Fr, 01.03. 1:20 keine Meldung -
Fr, 01.03. 1:10 keine Meldung -
Fr, 01.03. 1:00 0.0 l/m2 in 1 Std. -
Fr, 01.03. 0:30 0.0 l/m2 in 30 Min -
Fr, 01.03. 0:00 0.0 l/m2 in 1 Std. -
Do, 29.02. 23:30 0.0 l/m2 in 30 Min -
Do, 29.02. 23:00 0.0 l/m2 in 1 Std. -
Do, 29.02. 22:30 0.0 l/m2 in 30 Min -
Ortszeit Stärke Spitze Richtung
km/h Bft. km/h Grad Sektor
Fr, 01.03. 1:00 6 1 13 160° S
Do, 29.02. 19:00 4 1 14 60° NO
Do, 29.02. 13:00 4 1 11 280° W
Do, 29.02. 7:00 4 1 11 230° SW
Do, 29.02. 1:00 4 1 11 360° N
Mi, 28.02. 19:00 11 2 32 10° N
Mi, 28.02. 13:00 14 3 22 360° N
Mi, 28.02. 7:00 7 2 22 30° NO
Ortszeit Stärke Spitze Richtung
km/h Bft. km/h Grad Sektor
Fr, 01.03. 2:00 4 1 7 200° S
Fr, 01.03. 1:50 4 1 - 200° S
Fr, 01.03. 1:40 4 1 - 190° S
Fr, 01.03. 1:30 4 1 7 160° S
Fr, 01.03. 1:20 4 1 - 160° S
Fr, 01.03. 1:10 6 1 - 150° SO
Fr, 01.03. 1:00 6 1 13 160° S
Fr, 01.03. 0:30 7 2 14 180° S
Fr, 01.03. 0:00 7 2 11 220° SW
Do, 29.02. 23:30 6 1 7 250° W
Do, 29.02. 23:00 4 1 7 270° W
Do, 29.02. 22:30 0 0 4 - -
Ortszeit Untergrenze Bedeckung Gattung
total tief tief mittel hoch
Fr, 01.03. 1:00 2700 m 8/8 3/8 - - -
Do, 29.02. 19:00 - 0/8 0/8 - - -
Do, 29.02. 13:00 - 0/8 0/8 - - -
Do, 29.02. 7:00 10500 m 8/8 0/8 - - -
Do, 29.02. 1:00 - 0/8 0/8 - - -
Mi, 28.02. 19:00 7500 m 8/8 0/8 - - -
Mi, 28.02. 13:00 540 m 1/8 1/8 - - -
Mi, 28.02. 7:00 870 m 1/8 1/8 - - -
Ortszeit Bedeckungsgrad in Achtel und Wolkenuntergrenze
Fr, 01.03. 2:00 7(3000m) 7(4200m) 8(5400m)
Fr, 01.03. 1:50 7(3000m) 7(4200m) 8(5400m)
Fr, 01.03. 1:40 8
Fr, 01.03. 1:30 2(3000m) 8(4200m) 8(5400m)
Fr, 01.03. 1:20 2(3000m) 8(4200m) 8(5400m)
Fr, 01.03. 1:10 8
Fr, 01.03. 1:00 3(2700m) 8(3600m)
Fr, 01.03. 0:30 6(3000m)
Fr, 01.03. 0:00 4(3600m)
Do, 29.02. 23:30 2(3900m)
Do, 29.02. 23:00 keine Wolken
Do, 29.02. 22:30 keine Wolken
Ortszeit Luftdruck NN (hPa) Tendenz (hPa in 3 Std.)
Fr, 01.03. 1:00 1008 - 0,4
Do, 29.02. 19:00 1009 - 1,6
Do, 29.02. 13:00 1014 - 3,0
Do, 29.02. 7:00 1019 - 1,4
Do, 29.02. 1:00 1022 - 1,2
Mi, 28.02. 19:00 1022 + 0,5
Mi, 28.02. 13:00 1023 + 0,5
Mi, 28.02. 7:00 1021 + 1,5
Ortszeit Luftdruck NN (hPa) Tendenz (hPa in 3 Std.)
Fr, 01.03. 2:00 1008 - 0,1
Fr, 01.03. 1:50 1008 keine Meldung
Fr, 01.03. 1:40 1008 keine Meldung
Fr, 01.03. 1:30 1009 0,0
Fr, 01.03. 1:20 1009 keine Meldung
Fr, 01.03. 1:10 1009 keine Meldung
Fr, 01.03. 1:00 1008 - 0,4
Fr, 01.03. 0:30 1009 - 0,2
Fr, 01.03. 0:00 1009 - 0,2
Do, 29.02. 23:30 1009 - 0,4
Do, 29.02. 23:00 1009 - 0,6
Do, 29.02. 22:30 1009 - 0,8
Ortszeit Schneehöhe (cm)
Fr, 01.03. 1:00 0
Do, 29.02. 19:00 0
Do, 29.02. 13:00 0
Do, 29.02. 7:00 0
Do, 29.02. 1:00 0
Mi, 28.02. 19:00 0
Mi, 28.02. 13:00 0
Mi, 28.02. 7:00 0
Ortszeit Schneehöhe (cm)
Fr, 01.03. 2:00 0
Fr, 01.03. 1:50 0
Fr, 01.03. 1:40 -
Fr, 01.03. 1:30 0
Fr, 01.03. 1:20 0
Fr, 01.03. 1:10 -
Fr, 01.03. 1:00 0
Fr, 01.03. 0:30 0
Fr, 01.03. 0:00 0
Do, 29.02. 23:30 0
Do, 29.02. 23:00 0
Do, 29.02. 22:30 0
Link zu dieser Seite / Seite empfehlen

Das Wetter in ...